Twin Bridges, CA

5:06 AM PST on February 09, 2016 (GMT -0800)
Lake Tahoe

Weather History for KTVL - April, 2013

Change the Weather History Date:

Thursday, April 25, 2013

  Actual Average Record
Temperature  
Mean Temperature 47 °F 42 °F  
Max Temperature 66 °F 57 °F 68 °F (1946)
Min Temperature 28 °F 28 °F 10 °F (1974)
Degree Days  
Heating Degree Days 18 23  
Month to date heating degree days 540 630  
Since 1 July heating degree days 6322 6782  
Cooling Degree Days 0 0  
Month to date cooling degree days 0 0  
Year to date cooling degree days 0 0  
Moisture  
Dew Point 22 °F    
Average Humidity 43    
Maximum Humidity 69    
Minimum Humidity 16    
Precipitation  
Precipitation 0.00 in - 0.89 in (2015)
Month to date precipitation 0.70  
Year to date precipitation 2.94  
Sea Level Pressure  
Sea Level Pressure 30.05 in    
Wind  
Wind Speed 4 mph (South)    
Max Wind Speed 12 mph    
Max Gust Speed 20 mph    
Visibility 10 miles    
Events      
T = Trace of Precipitation, MM = Missing Value Source: NWS Daily Summary

Daily Weather History Graph

Daily Weather History Graph

Search for Another Location

Airport or City:

Trip Planner

Search our weather history database for the weather conditions in past years. The results will help you decide how hot, cold, wet, or windy it might be!

Date:

Astronomy

Apr. 25, 2013 Rise Set
Actual Time 6:09 AM PDT 7:47 PM PDT
Civil Twilight 5:41 AM PDT 8:15 PM PDT
Nautical Twilight 5:06 AM PDT 8:49 PM PDT
Astronomical Twilight 4:30 AM PDT 9:26 PM PDT
Moon 8:05 PM PDT (4/25) 5:55 AM PDT (4/25)
Length of Visible Light 14h 34m
Length of Day
13h 37m
Full, 100% of the Moon is Illuminated
Apr 25
Full
Apr 25
Full
May 2
Last Quarter
May 9
New
May 17
First Quarter

Hourly Weather History & Observations

Time (PDT) Temp. Windchill Dew Point Humidity Pressure Visibility Wind Dir Wind Speed Gust Speed Precip Events Conditions
12:53 AM 33.1 °F 27.7 °F 19.9 °F 59% 30.01 in 10.0 mi SSW 5.8 mph - N/A   Clear
1:53 AM 32.0 °F - 18.0 °F 56% 30.01 in 10.0 mi Calm Calm - N/A   Clear
2:53 AM 30.0 °F 25.2 °F 19.9 °F 66% 30.00 in 10.0 mi South 4.6 mph - N/A   Clear
3:53 AM 30.0 °F 25.2 °F 19.0 °F 64% 30.00 in 10.0 mi South 4.6 mph - N/A   Clear
4:53 AM 28.9 °F 23.9 °F 19.0 °F 67% 30.01 in 10.0 mi South 4.6 mph - N/A   Clear
5:53 AM 28.0 °F 24.2 °F 19.0 °F 69% 30.01 in 10.0 mi South 3.5 mph - N/A   Clear
6:53 AM 28.9 °F - 19.0 °F 67% 30.03 in 10.0 mi Calm Calm - N/A   Clear
7:53 AM 36.0 °F 33.3 °F 21.9 °F 57% 30.04 in 10.0 mi South 3.5 mph - N/A   Clear
8:53 AM 48.9 °F - 19.0 °F 31% 30.03 in 10.0 mi NE 3.5 mph - N/A   Clear
9:53 AM 55.0 °F - 19.0 °F 24% 30.03 in 10.0 mi NE 6.9 mph - N/A   Clear
10:53 AM 57.9 °F - 18.0 °F 21% 30.03 in 10.0 mi NE 8.1 mph - N/A   Clear
11:53 AM 61.0 °F - 21.0 °F 21% 30.02 in 10.0 mi Calm Calm - N/A   Clear
12:53 PM 62.1 °F - 24.1 °F 23% 30.02 in 10.0 mi Variable 4.6 mph - N/A   Clear
1:53 PM 64.0 °F - 21.0 °F 19% 30.02 in 10.0 mi NNE 6.9 mph - N/A   Clear
2:53 PM 66.0 °F - 19.9 °F 17% 30.03 in 10.0 mi Variable 5.8 mph - N/A   Clear
3:53 PM 64.0 °F - 19.9 °F 18% 30.03 in 10.0 mi Variable 6.9 mph - N/A   Clear
4:53 PM 62.1 °F - 21.9 °F 21% 30.04 in 10.0 mi SSW 8.1 mph 17.3 mph N/A   Clear
5:53 PM 61.0 °F - 23.0 °F 23% 30.07 in 10.0 mi SSW 11.5 mph - N/A   Clear
6:53 PM 57.0 °F - 24.1 °F 28% 30.10 in 10.0 mi SSW 4.6 mph - N/A   Clear
7:53 PM 50.0 °F - 28.0 °F 43% 30.12 in 10.0 mi Calm Calm - N/A   Clear
8:53 PM 46.0 °F - 28.0 °F 50% 30.12 in 10.0 mi Calm Calm - N/A   Clear
9:53 PM 43.0 °F 41.3 °F 28.0 °F 56% 30.14 in 10.0 mi South 3.5 mph - N/A   Clear
10:53 PM 39.9 °F - 28.0 °F 63% 30.15 in 10.0 mi Calm Calm - N/A   Clear